Year,Month,Day,Hour,Minute,Value (Times are PST for temperature in C)
2013,08,25,00,00,5.90
2013,08,25,00,04,5.90
2013,08,25,00,05,5.90
2013,08,25,00,06,5.90
2013,08,25,00,07,5.90
2013,08,25,00,08,5.90
2013,08,25,00,09,5.90
2013,08,25,00,10,5.90
2013,08,25,00,11,5.90
2013,08,25,00,12,5.90
2013,08,25,00,13,5.90
2013,08,25,00,14,5.90
2013,08,25,00,15,5.90
2013,08,25,00,19,5.90
2013,08,25,00,20,5.90
2013,08,25,00,21,5.90
2013,08,25,00,22,5.90
2013,08,25,00,23,5.90
2013,08,25,00,24,5.90
2013,08,25,00,25,5.90
2013,08,25,00,26,5.90
2013,08,25,00,27,5.90
2013,08,25,00,28,5.90
2013,08,25,00,29,5.90
2013,08,25,00,30,5.90
2013,08,25,00,34,5.90
2013,08,25,00,35,5.90
2013,08,25,00,36,5.90
2013,08,25,00,37,5.90
2013,08,25,00,38,5.90
2013,08,25,00,39,5.90
2013,08,25,00,40,5.90
2013,08,25,00,41,5.90
2013,08,25,00,42,5.90
2013,08,25,00,43,5.90
2013,08,25,00,44,5.90
2013,08,25,00,45,5.90
2013,08,25,00,49,5.70
2013,08,25,00,50,5.70
2013,08,25,00,51,5.70
2013,08,25,00,52,5.70
2013,08,25,00,53,5.70
2013,08,25,00,54,5.70
2013,08,25,00,55,5.70
2013,08,25,00,56,5.70
2013,08,25,00,57,5.70
2013,08,25,00,58,5.70
2013,08,25,00,59,5.70
2013,08,25,01,00,5.70
2013,08,25,01,04,5.40
2013,08,25,01,05,5.40
2013,08,25,01,06,5.40
2013,08,25,01,07,5.40
2013,08,25,01,08,5.40
2013,08,25,01,09,5.40
2013,08,25,01,10,5.40
2013,08,25,01,11,5.40
2013,08,25,01,12,5.40
2013,08,25,01,13,5.40
2013,08,25,01,14,5.40
2013,08,25,01,15,5.40
2013,08,25,01,19,5.50
2013,08,25,01,20,5.50
2013,08,25,01,21,5.50
2013,08,25,01,22,5.50
2013,08,25,01,23,5.50
2013,08,25,01,24,5.50
2013,08,25,01,25,5.50
2013,08,25,01,26,5.50
2013,08,25,01,27,5.50
2013,08,25,01,28,5.50
2013,08,25,01,29,5.50
2013,08,25,01,30,5.50
2013,08,25,01,34,5.70
2013,08,25,01,35,5.70
2013,08,25,01,36,5.70
2013,08,25,01,37,5.70
2013,08,25,01,38,5.70
2013,08,25,01,39,5.70
2013,08,25,01,40,5.70
2013,08,25,01,41,5.70
2013,08,25,01,42,5.70
2013,08,25,01,43,5.70
2013,08,25,01,44,5.70
2013,08,25,01,45,5.70
2013,08,25,01,49,5.60
2013,08,25,01,50,5.60
2013,08,25,01,51,5.60
2013,08,25,01,52,5.60
2013,08,25,01,53,5.60
2013,08,25,01,54,5.60
2013,08,25,01,55,5.60
2013,08,25,01,56,5.60
2013,08,25,01,57,5.60
2013,08,25,01,58,5.60
2013,08,25,01,59,5.60
2013,08,25,02,00,5.60
2013,08,25,02,04,5.40
2013,08,25,02,05,5.40
2013,08,25,02,06,5.40
2013,08,25,02,07,5.40
2013,08,25,02,08,5.40
2013,08,25,02,09,5.40
2013,08,25,02,10,5.40
2013,08,25,02,11,5.40
2013,08,25,02,12,5.40
2013,08,25,02,13,5.40
2013,08,25,02,14,5.40
2013,08,25,02,15,5.40
2013,08,25,02,19,5.20
2013,08,25,02,20,5.20
2013,08,25,02,21,5.20
2013,08,25,02,22,5.20
2013,08,25,02,23,5.20
2013,08,25,02,24,5.20
2013,08,25,02,25,5.20
2013,08,25,02,26,5.20
2013,08,25,02,27,5.20
2013,08,25,02,28,5.20
2013,08,25,02,29,5.20
2013,08,25,02,30,5.20
2013,08,25,02,34,5.20
2013,08,25,02,35,5.20
2013,08,25,02,36,5.20
2013,08,25,02,37,5.20
2013,08,25,02,38,5.20
2013,08,25,02,39,5.20
2013,08,25,02,40,5.20
2013,08,25,02,41,5.20
2013,08,25,02,42,5.20
2013,08,25,02,43,5.20
2013,08,25,02,44,5.20
2013,08,25,02,45,5.20
2013,08,25,02,49,5.20
2013,08,25,02,50,5.20
2013,08,25,02,51,5.20
2013,08,25,02,52,5.20
2013,08,25,02,53,5.20
2013,08,25,02,54,5.20
2013,08,25,02,55,5.20
2013,08,25,02,56,5.20
2013,08,25,02,57,5.20
2013,08,25,02,58,5.20
2013,08,25,02,59,5.20
2013,08,25,03,00,5.20
2013,08,25,03,04,5.20
2013,08,25,03,05,5.20
2013,08,25,03,06,5.20
2013,08,25,03,07,5.20
2013,08,25,03,08,5.20
2013,08,25,03,09,5.20
2013,08,25,03,10,5.20
2013,08,25,03,11,5.20
2013,08,25,03,12,5.20
2013,08,25,03,13,5.20
2013,08,25,03,14,5.20
2013,08,25,03,15,5.20
2013,08,25,03,19,5.20
2013,08,25,03,20,5.20
2013,08,25,03,21,5.20
2013,08,25,03,22,5.20
2013,08,25,03,23,5.20
2013,08,25,03,24,5.20
2013,08,25,03,25,5.20
2013,08,25,03,26,5.20
2013,08,25,03,27,5.20
2013,08,25,03,28,5.20
2013,08,25,03,29,5.20
2013,08,25,03,30,5.20
2013,08,25,03,34,5.20
2013,08,25,03,35,5.20
2013,08,25,03,36,5.20
2013,08,25,03,37,5.20
2013,08,25,03,38,5.20
2013,08,25,03,39,5.20
2013,08,25,03,40,5.20
2013,08,25,03,41,5.20
2013,08,25,03,42,5.20
2013,08,25,03,43,5.20
2013,08,25,03,44,5.20
2013,08,25,03,45,5.20
2013,08,25,03,49,5.10
2013,08,25,03,50,5.10
2013,08,25,03,51,5.10
2013,08,25,03,52,5.10
2013,08,25,03,53,5.10
2013,08,25,03,54,5.10
2013,08,25,03,55,5.10
2013,08,25,03,56,5.10
2013,08,25,03,57,5.10
2013,08,25,03,58,5.10
2013,08,25,03,59,5.10
2013,08,25,04,00,5.10
2013,08,25,04,04,4.80
2013,08,25,04,05,4.80
2013,08,25,04,06,4.80
2013,08,25,04,07,4.80
2013,08,25,04,08,4.80
2013,08,25,04,09,4.80
2013,08,25,04,10,4.80
2013,08,25,04,11,4.80
2013,08,25,04,12,4.80
2013,08,25,04,13,4.80
2013,08,25,04,14,4.80
2013,08,25,04,15,4.80
2013,08,25,04,19,4.60
2013,08,25,04,20,4.60
2013,08,25,04,21,4.60
2013,08,25,04,22,4.60
2013,08,25,04,23,4.60
2013,08,25,04,24,4.60
2013,08,25,04,25,4.60
2013,08,25,04,26,4.60
2013,08,25,04,27,4.60
2013,08,25,04,28,4.60
2013,08,25,04,29,4.60
2013,08,25,04,30,4.60
2013,08,25,04,34,4.40
2013,08,25,04,35,4.40
2013,08,25,04,36,4.40
2013,08,25,04,37,4.40
2013,08,25,04,38,4.40
2013,08,25,04,39,4.40
2013,08,25,04,40,4.40
2013,08,25,04,41,4.40
2013,08,25,04,42,4.40
2013,08,25,04,43,4.40
2013,08,25,04,44,4.40
2013,08,25,04,45,4.40
2013,08,25,04,49,4.40
2013,08,25,04,50,4.40
2013,08,25,04,51,4.40
2013,08,25,04,52,4.40
2013,08,25,04,53,4.40
2013,08,25,04,54,4.40
2013,08,25,04,55,4.40
2013,08,25,04,56,4.40
2013,08,25,04,57,4.40
2013,08,25,04,58,4.40
2013,08,25,04,59,4.40
2013,08,25,05,00,4.40
2013,08,25,05,04,4.60
2013,08,25,05,05,4.60
2013,08,25,05,06,4.60
2013,08,25,05,07,4.60
2013,08,25,05,08,4.60
2013,08,25,05,09,4.60
2013,08,25,05,10,4.60
2013,08,25,05,11,4.60
2013,08,25,05,12,4.60
2013,08,25,05,13,4.60
2013,08,25,05,14,4.60
2013,08,25,05,15,4.60
2013,08,25,05,19,4.60
2013,08,25,05,20,4.60
2013,08,25,05,21,4.60
2013,08,25,05,22,4.60
2013,08,25,05,23,4.60
2013,08,25,05,24,4.60
2013,08,25,05,25,4.60
2013,08,25,05,26,4.60
2013,08,25,05,27,4.60
2013,08,25,05,28,4.60
2013,08,25,05,29,4.60
2013,08,25,05,30,4.60
2013,08,25,05,34,4.50
2013,08,25,05,35,4.50
2013,08,25,05,36,4.50
2013,08,25,05,37,4.50
2013,08,25,05,38,4.50
2013,08,25,05,39,4.50
2013,08,25,05,40,4.50
2013,08,25,05,41,4.50
2013,08,25,05,42,4.50
2013,08,25,05,43,4.50
2013,08,25,05,44,4.50
2013,08,25,05,45,4.50
2013,08,25,05,49,4.50
2013,08,25,05,50,4.50
2013,08,25,05,51,4.50
2013,08,25,05,52,4.50
2013,08,25,05,53,4.50
2013,08,25,05,54,4.50
2013,08,25,05,55,4.50
2013,08,25,05,56,4.50
2013,08,25,05,57,4.50
2013,08,25,05,58,4.50
2013,08,25,05,59,4.50
2013,08,25,06,00,4.50
2013,08,25,06,04,4.50
2013,08,25,06,05,4.50
2013,08,25,06,06,4.50
2013,08,25,06,07,4.50
2013,08,25,06,08,4.50
2013,08,25,06,09,4.50
2013,08,25,06,10,4.50
2013,08,25,06,11,4.50
2013,08,25,06,12,4.50
2013,08,25,06,13,4.50
2013,08,25,06,14,4.50
2013,08,25,06,15,4.50
2013,08,25,06,19,4.40
2013,08,25,06,20,4.40
2013,08,25,06,21,4.40
2013,08,25,06,22,4.40
2013,08,25,23,45,6.40
2013,08,25,23,49,6.20
2013,08,25,23,50,6.20
2013,08,25,23,51,6.20
2013,08,25,23,52,6.20
2013,08,25,23,53,6.20
2013,08,25,23,54,6.20
2013,08,25,23,55,6.20
2013,08,25,23,56,6.20
2013,08,25,23,57,6.20
2013,08,25,23,58,6.20
2013,08,25,23,59,6.20
